Terug naar catalogus

TITAN 3C TRANSTAGE R/B

ActiefMEO
NORAD 5589·ROCKET BODY·🇺🇸 United States

Gelanceerd Nov 3, 1971 vanaf Cape Canaveral Space Force Station

Loading…

Volgende Passages (komende 24 uur)

TLE

VersSource: Space-Track

Epoch: Sep 14, 2026, 12:28 UTC

1 05589U 71095C   26257.51949671 -.00000196  00000-0  00000-0 0  9990
2 05589   3.0484 272.2764 0165703 189.4310 276.4992  0.97188871120298

Volg TITAN 3C TRANSTAGE R/B in realtime met AllMySat

Download on the App Store